| time (UTC) | temp F | wind direction | speed MPH | gust MPH | rain 1hr in | rain 24hr in | rain mn in | humidity % | barometer mb |
| 20260505153016 | 74 | 198 | 0.0 | 3.0 | 0.00 | 0.00 | 0.00 | 46 | 1008.0 |
| 20260505152518 | 73 | 116 | 0.0 | 3.0 | 0.00 | 0.00 | 0.00 | 48 | 1008.0 |
| 20260505152017 | 73 | 93 | 0.0 | 2.0 | 0.00 | 0.00 | 0.00 | 48 | 1009.0 |
| 20260505151517 | 73 | 172 | 2.0 | 3.0 | 0.00 | 0.00 | 0.00 | 47 | 1009.0 |
| 20260505151017 | 72 | 276 | 0.0 | 3.0 | 0.00 | 0.00 | 0.00 | 50 | 1009.0 |
| 20260505150518 | 71 | 194 | 3.0 | 6.0 | 0.00 | 0.00 | 0.00 | 51 | 1009.0 |
| 20260505140516 | 65 | 183 | 0.0 | 5.0 | 0.00 | 0.00 | 0.00 | 59 | 1010.0 |
| 20260505125017 | 61 | 197 | 5.0 | 6.0 | 0.00 | 0.00 | 0.00 | 66 | 1010.0 |
| 20260505124519 | 61 | 311 | 3.0 | 6.0 | 0.00 | 0.00 | 0.00 | 67 | 1010.0 |
| 20260505124017 | 61 | 243 | 2.0 | 5.0 | 0.00 | 0.00 | 0.00 | 68 | 1009.0 |
| 20260505123517 | 60 | 271 | 2.0 | 7.0 | 0.00 | 0.00 | 0.00 | 69 | 1009.0 |
| 20260505123017 | 60 | 287 | 4.0 | 7.0 | 0.00 | 0.00 | 0.00 | 70 | 1009.0 |
| 20260505122517 | 60 | 309 | 2.0 | 3.0 | 0.00 | 0.00 | 0.00 | 70 | 1009.0 |
| 20260505122016 | 60 | 253 | 3.0 | 4.0 | 0.00 | 0.00 | 0.00 | 70 | 1009.0 |
| 20260505121517 | 59 | 261 | 4.0 | 4.0 | 0.00 | 0.00 | 0.00 | 69 | 1009.0 |
| 20260505121016 | 59 | 193 | 3.0 | 4.0 | 0.00 | 0.00 | 0.00 | 71 | 1009.0 |
| 20260505120517 | 59 | 37 | 1.0 | 5.0 | 0.00 | 0.00 | 0.00 | 70 | 1009.0 |
| 20260505120017 | 59 | 88 | 1.0 | 4.0 | 0.00 | 0.00 | 0.00 | 70 | 1009.0 |
| 20260505115516 | 58 | 215 | 3.0 | 6.0 | 0.00 | 0.00 | 0.00 | 71 | 1009.0 |
| 20260505115017 | 58 | 168 | 5.0 | 6.0 | 0.00 | 0.00 | 0.00 | 72 | 1009.0 |
| 20260505114517 | 58 | 292 | 3.0 | 3.0 | 0.00 | 0.00 | 0.00 | 72 | 1010.0 |
| 20260505114017 | 58 | 249 | 2.0 | 4.0 | 0.00 | 0.00 | 0.00 | 72 | 1009.0 |
| 20260505113517 | 58 | 161 | 2.0 | 4.0 | 0.00 | 0.00 | 0.00 | 74 | 1009.0 |
| 20260505113017 | 58 | 214 | 3.0 | 5.0 | 0.00 | 0.00 | 0.00 | 73 | 1010.0 |
| 20260505112518 | 58 | 118 | 1.0 | 4.0 | 0.00 | 0.00 | 0.00 | 74 | 1009.0 |
| 20260505112016 | 58 | 236 | 0.0 | 3.0 | 0.00 | 0.00 | 0.00 | 75 | 1009.0 |
| 20260505111517 | 57 | 195 | 3.0 | 7.0 | 0.00 | 0.00 | 0.00 | 77 | 1010.0 |
| 20260505111017 | 57 | 197 | 3.0 | 5.0 | 0.00 | 0.00 | 0.00 | 79 | 1010.0 |
| 20260505110517 | 57 | 252 | 2.0 | 5.0 | 0.00 | 0.00 | 0.00 | 80 | 1009.0 |
| 20260505102018 | 58 | 241 | 4.0 | 5.0 | 0.00 | 0.00 | 0.00 | 72 | 1009.0 |
| 20260505101518 | 59 | 212 | 1.0 | 5.0 | 0.00 | 0.00 | 0.00 | 65 | 1009.0 |
| 20260505101016 | 59 | 281 | 1.0 | 5.0 | 0.00 | 0.00 | 0.00 | 64 | 1009.0 |
| 20260505100516 | 58 | 274 | 6.0 | 8.0 | 0.00 | 0.00 | 0.00 | 65 | 1009.0 |
| 20260505100017 | 58 | 165 | 2.0 | 6.0 | 0.00 | 0.00 | 0.00 | 65 | 1009.0 |
| 20260505095516 | 58 | 292 | 0.0 | 4.0 | 0.00 | 0.00 | 0.00 | 65 | 1009.0 |
| 20260505095016 | 58 | 207 | 1.0 | 4.0 | 0.00 | 0.00 | 0.00 | 65 | 1009.0 |
| 20260505094520 | 58 | 173 | 2.0 | 4.0 | 0.00 | 0.00 | 0.00 | 66 | 1009.0 |
| 20260505094016 | 58 | 266 | 1.0 | 4.0 | 0.00 | 0.00 | 0.00 | 66 | 1009.0 |
| 20260505093516 | 57 | 254 | 2.0 | 3.0 | 0.00 | 0.00 | 0.00 | 66 | 1009.0 |
| 20260505093018 | 57 | 178 | 1.0 | 4.0 | 0.00 | 0.00 | 0.00 | 66 | 1009.0 |
| 20260505092516 | 57 | 219 | 2.0 | 3.0 | 0.00 | 0.00 | 0.00 | 66 | 1008.0 |
| 20260505092016 | 57 | 231 | 0.0 | 2.0 | 0.00 | 0.00 | 0.00 | 66 | 1009.0 |
| 20260505091516 | 58 | 284 | 0.0 | 3.0 | 0.00 | 0.00 | 0.00 | 66 | 1009.0 |
| 20260505091016 | 58 | 218 | 0.0 | 3.0 | 0.00 | 0.00 | 0.00 | 66 | 1009.0 |
| 20260505090516 | 58 | 248 | 0.0 | 3.0 | 0.00 | 0.00 | 0.00 | 66 | 1008.0 |
| 20260505090016 | 58 | 163 | 3.0 | 3.0 | 0.00 | 0.00 | 0.00 | 65 | 1008.0 |
| 20260505085519 | 57 | 177 | 3.0 | 3.0 | 0.00 | 0.00 | 0.00 | 66 | 1008.0 |
| 20260505085016 | 57 | 154 | 2.0 | 3.0 | 0.00 | 0.00 | 0.00 | 66 | 1008.0 |
| 20260505084517 | 58 | 190 | 2.0 | 2.0 | 0.00 | 0.00 | 0.00 | 65 | 1008.0 |
| 20260505084016 | 58 | 35 | 0.0 | 3.0 | 0.00 | 0.00 | 0.00 | 65 | 1008.0 |
| 20260505083517 | 58 | 292 | 1.0 | 3.0 | 0.00 | 0.00 | 0.00 | 64 | 1008.0 |
| 20260505083016 | 58 | 265 | 2.0 | 3.0 | 0.00 | 0.00 | 0.00 | 64 | 1008.0 |
| 20260505082516 | 58 | 249 | 5.0 | 5.0 | 0.00 | 0.00 | 0.00 | 64 | 1008.0 |
| 20260505082016 | 58 | 315 | 0.0 | 3.0 | 0.00 | 0.00 | 0.00 | 64 | 1008.0 |
| 20260505081517 | 58 | 241 | 1.0 | 5.0 | 0.00 | 0.00 | 0.00 | 64 | 1008.0 |
| 20260505081017 | 58 | 182 | 2.0 | 2.0 | 0.00 | 0.00 | 0.00 | 65 | 1008.0 |
| 20260505080516 | 58 | 283 | 2.0 | 2.0 | 0.00 | 0.00 | 0.00 | 64 | 1008.0 |
| 20260505080017 | 58 | 180 | 0.0 | 4.0 | 0.00 | 0.00 | 0.00 | 65 | 1008.0 |
| 20260505075517 | 58 | 300 | 0.0 | 3.0 | 0.00 | 0.00 | 0.00 | 64 | 1008.0 |
| 20260505075017 | 58 | 200 | 1.0 | 5.0 | 0.00 | 0.00 | 0.00 | 64 | 1008.0 |
| 20260505074517 | 58 | 319 | 0.0 | 4.0 | 0.00 | 0.00 | 0.00 | 64 | 1008.0 |
| 20260505074016 | 58 | 169 | 3.0 | 3.0 | 0.00 | 0.00 | 0.00 | 64 | 1008.0 |
| 20260505073516 | 58 | 186 | 3.0 | 4.0 | 0.00 | 0.00 | 0.00 | 64 | 1008.0 |
| 20260505073016 | 58 | 302 | 0.0 | 4.0 | 0.00 | 0.00 | 0.00 | 64 | 1008.0 |
| 20260505072517 | 58 | 11 | 1.0 | 4.0 | 0.00 | 0.00 | 0.00 | 65 | 1008.0 |
| 20260505072017 | 58 | 227 | 3.0 | 3.0 | 0.00 | 0.00 | 0.00 | 65 | 1008.0 |
| 20260505071518 | 58 | 174 | 0.0 | 5.0 | 0.00 | 0.00 | 0.00 | 65 | 1008.0 |
| 20260505071017 | 58 | 168 | 2.0 | 3.0 | 0.00 | 0.00 | 0.00 | 65 | 1008.0 |
| 20260505070517 | 58 | 271 | 1.0 | 4.0 | 0.00 | 0.00 | 0.00 | 65 | 1008.0 |
| 20260505070017 | 58 | 235 | 3.0 | 3.0 | 0.00 | 0.00 | 0.00 | 65 | 1008.0 |
| 20260505065517 | 58 | 328 | 2.0 | 11.0 | 0.00 | 0.00 | 0.00 | 65 | 1008.0 |
| 20260505065017 | 58 | 200 | 0.0 | 3.0 | 0.00 | 0.00 | 0.00 | 66 | 1008.0 |
| 20260505064516 | 57 | 168 | 0.0 | 4.0 | 0.00 | 0.00 | 0.00 | 66 | 1008.0 |
| 20260505064016 | 57 | 149 | 3.0 | 3.0 | 0.00 | 0.00 | 0.00 | 66 | 1008.0 |
| 20260505063517 | 58 | 170 | 1.0 | 3.0 | 0.00 | 0.00 | 0.00 | 66 | 1009.0 |
| 20260505063016 | 57 | 309 | 1.0 | 5.0 | 0.00 | 0.00 | 0.00 | 66 | 1009.0 |
| 20260505062517 | 57 | 140 | 0.0 | 4.0 | 0.00 | 0.00 | 0.00 | 66 | 1009.0 |
| 20260505062016 | 57 | 176 | 2.0 | 3.0 | 0.00 | 0.00 | 0.00 | 66 | 1008.0 |
| 20260505061516 | 57 | 167 | 1.0 | 3.0 | 0.00 | 0.00 | 0.00 | 67 | 1008.0 |
| 20260505061016 | 57 | 165 | 2.0 | 3.0 | 0.00 | 0.00 | 0.00 | 67 | 1009.0 |
| 20260505060516 | 56 | 296 | 1.0 | 3.0 | 0.00 | 0.00 | 0.00 | 67 | 1009.0 |
| 20260505060017 | 56 | 328 | 0.0 | 3.0 | 0.00 | 0.00 | 0.00 | 67 | 1009.0 |
| 20260505055516 | 56 | 301 | 0.0 | 2.0 | 0.00 | 0.00 | 0.00 | 66 | 1009.0 |
| 20260505055017 | 57 | 221 | 0.0 | 1.0 | 0.00 | 0.00 | 0.00 | 66 | 1009.0 |
| 20260505054516 | 57 | 251 | 1.0 | 2.0 | 0.00 | 0.00 | 0.00 | 66 | 1009.0 |
| 20260505054016 | 57 | 202 | 0.0 | 3.0 | 0.00 | 0.00 | 0.00 | 67 | 1009.0 |
| 20260505053516 | 57 | 283 | 1.0 | 2.0 | 0.00 | 0.00 | 0.00 | 67 | 1008.0 |
| 20260505053016 | 57 | 237 | 1.0 | 2.0 | 0.00 | 0.00 | 0.00 | 66 | 1009.0 |
| 20260505052516 | 57 | 286 | 0.0 | 4.0 | 0.00 | 0.00 | 0.00 | 66 | 1009.0 |
| 20260505052016 | 57 | 143 | 0.0 | 2.0 | 0.00 | 0.00 | 0.00 | 65 | 1009.0 |
| 20260505051516 | 57 | 124 | 1.0 | 2.0 | 0.00 | 0.00 | 0.00 | 65 | 1009.0 |
| 20260505051016 | 57 | 217 | 2.0 | 7.0 | 0.00 | 0.00 | 0.00 | 64 | 1009.0 |
| 20260505050516 | 57 | 140 | 1.0 | 4.0 | 0.00 | 0.00 | 0.00 | 64 | 1009.0 |
| 20260505041516 | 58 | 156 | 2.0 | 3.0 | 0.00 | 0.00 | 0.00 | 57 | 1009.0 |
| 20260505041017 | 58 | 142 | 1.0 | 3.0 | 0.00 | 0.00 | 0.00 | 56 | 1009.0 |
| 20260505040518 | 58 | 167 | 2.0 | 3.0 | 0.00 | 0.00 | 0.00 | 56 | 1009.0 |
| 20260505040016 | 58 | 163 | 2.0 | 3.0 | 0.00 | 0.00 | 0.00 | 55 | 1009.0 |
| 20260505035516 | 59 | 201 | 0.0 | 3.0 | 0.00 | 0.00 | 0.00 | 54 | 1009.0 |
| 20260505035016 | 59 | 186 | 2.0 | 2.0 | 0.00 | 0.00 | 0.00 | 54 | 1009.0 |
| 20260505034516 | 59 | 327 | 1.0 | 3.0 | 0.00 | 0.00 | 0.00 | 53 | 1009.0 |
| 20260505034016 | 59 | 165 | 2.0 | 3.0 | 0.00 | 0.00 | 0.00 | 53 | 1009.0 |
| 20260505033517 | 59 | 167 | 2.0 | 3.0 | 0.00 | 0.00 | 0.00 | 53 | 1009.0 |
| 20260505033016 | 59 | 177 | 2.0 | 3.0 | 0.00 | 0.00 | 0.00 | 52 | 1009.0 |
| 20260505032516 | 59 | 163 | 2.0 | 3.0 | 0.00 | 0.00 | 0.00 | 52 | 1009.0 |
| 20260505032017 | 59 | 92 | 1.0 | 3.0 | 0.00 | 0.00 | 0.00 | 51 | 1009.0 |
| 20260505031516 | 60 | 123 | 2.0 | 2.0 | 0.00 | 0.00 | 0.00 | 50 | 1009.0 |
| 20260505031016 | 60 | 175 | 1.0 | 3.0 | 0.00 | 0.00 | 0.00 | 49 | 1009.0 |
| 20260505030516 | 60 | 22 | 2.0 | 3.0 | 0.00 | 0.00 | 0.00 | 49 | 1009.0 |
| 20260505030016 | 60 | 175 | 2.0 | 3.0 | 0.00 | 0.00 | 0.00 | 48 | 1009.0 |
| 20260505025516 | 60 | 169 | 0.0 | 2.0 | 0.00 | 0.00 | 0.00 | 48 | 1009.0 |
| 20260505025016 | 60 | 32 | 1.0 | 3.0 | 0.00 | 0.00 | 0.00 | 47 | 1009.0 |
| 20260505024516 | 60 | 144 | 0.0 | 3.0 | 0.00 | 0.00 | 0.00 | 47 | 1009.0 |
| 20260505024016 | 60 | 175 | 2.0 | 2.0 | 0.00 | 0.00 | 0.00 | 47 | 1009.0 |
| 20260505023516 | 60 | 40 | 0.0 | 1.0 | 0.00 | 0.00 | 0.00 | 47 | 1009.0 |
| 20260505023016 | 61 | 168 | 0.0 | 2.0 | 0.00 | 0.00 | 0.00 | 46 | 1009.0 |
| 20260505022516 | 61 | 267 | 0.0 | 2.0 | 0.00 | 0.00 | 0.00 | 46 | 1009.0 |
| 20260505022017 | 61 | 164 | 0.0 | 3.0 | 0.00 | 0.00 | 0.00 | 45 | 1009.0 |
| 20260505021516 | 62 | 176 | 0.0 | 2.0 | 0.00 | 0.00 | 0.00 | 45 | 1009.0 |
| 20260505021018 | 62 | 338 | 0.0 | 2.0 | 0.00 | 0.00 | 0.00 | 44 | 1009.0 |
| 20260505020517 | 62 | 293 | 0.0 | 3.0 | 0.00 | 0.00 | 0.00 | 44 | 1009.0 |
| 20260505020017 | 62 | 306 | 0.0 | 3.0 | 0.00 | 0.00 | 0.00 | 44 | 1009.0 |
| 20260505015516 | 62 | 142 | 0.0 | 2.0 | 0.00 | 0.00 | 0.00 | 44 | 1009.0 |
| 20260505015016 | 62 | 176 | 1.0 | 2.0 | 0.00 | 0.00 | 0.00 | 43 | 1009.0 |
| 20260505014516 | 62 | 296 | 0.0 | 3.0 | 0.00 | 0.00 | 0.00 | 43 | 1009.0 |
| 20260505014017 | 63 | 1 | 0.0 | 3.0 | 0.00 | 0.00 | 0.00 | 43 | 1009.0 |
| 20260505013516 | 63 | 316 | 1.0 | 3.0 | 0.00 | 0.00 | 0.00 | 42 | 1009.0 |
| 20260505013017 | 63 | 144 | 2.0 | 3.0 | 0.00 | 0.00 | 0.00 | 42 | 1009.0 |
| 20260505012517 | 63 | 188 | 1.0 | 4.0 | 0.00 | 0.00 | 0.00 | 42 | 1009.0 |
| 20260505012016 | 63 | 179 | 1.0 | 3.0 | 0.00 | 0.00 | 0.00 | 42 | 1009.0 |
| 20260505011517 | 63 | 176 | 1.0 | 3.0 | 0.00 | 0.00 | 0.00 | 42 | 1009.0 |
| 20260505011016 | 63 | 180 | 2.0 | 3.0 | 0.00 | 0.00 | 0.00 | 42 | 1009.0 |
| 20260505010516 | 63 | 255 | 1.0 | 3.0 | 0.00 | 0.00 | 0.00 | 42 | 1008.0 |
| 20260505010016 | 64 | 155 | 1.0 | 3.0 | 0.00 | 0.00 | 0.00 | 41 | 1008.0 |
| 20260505005516 | 64 | 221 | 2.0 | 2.0 | 0.00 | 0.00 | 0.00 | 41 | 1008.0 |
| 20260505005016 | 64 | 278 | 2.0 | 3.0 | 0.00 | 0.00 | 0.00 | 41 | 1008.0 |
| 20260505004517 | 64 | 180 | 0.0 | 3.0 | 0.00 | 0.00 | 0.00 | 41 | 1008.0 |
| 20260505004018 | 64 | 124 | 0.0 | 3.0 | 0.00 | 0.00 | 0.00 | 41 | 1008.0 |
| 20260505003517 | 64 | 182 | 0.0 | 2.0 | 0.00 | 0.00 | 0.00 | 41 | 1008.0 |
| 20260505003017 | 64 | 147 | 1.0 | 2.0 | 0.00 | 0.00 | 0.00 | 40 | 1008.0 |
| 20260505002516 | 65 | 84 | 0.0 | 3.0 | 0.00 | 0.00 | 0.00 | 40 | 1008.0 |
| 20260505002016 | 65 | 313 | 1.0 | 5.0 | 0.00 | 0.00 | 0.00 | 39 | 1008.0 |
| 20260505001516 | 65 | 228 | 1.0 | 3.0 | 0.00 | 0.00 | 0.00 | 39 | 1008.0 |
| 20260505001016 | 65 | 278 | 1.0 | 3.0 | 0.00 | 0.00 | 0.00 | 39 | 1008.0 |
| 20260505000517 | 65 | 159 | 1.0 | 3.0 | 0.00 | 0.00 | 0.00 | 39 | 1008.0 |
| 20260505000017 | 66 | 210 | 1.0 | 4.0 | 0.00 | 0.00 | 0.00 | 38 | 1008.0 |
| 20260504235518 | 66 | 138 | 1.0 | 4.0 | 0.00 | 0.00 | 0.00 | 38 | 1007.0 |
| 20260504235016 | 66 | 201 | 2.0 | 4.0 | 0.00 | 0.00 | 0.00 | 38 | 1007.0 |
| 20260504234516 | 67 | 183 | 3.0 | 3.0 | 0.00 | 0.00 | 0.00 | 38 | 1007.0 |
| 20260504234016 | 67 | 25 | 0.0 | 3.0 | 0.00 | 0.00 | 0.00 | 37 | 1007.0 |
| 20260504233516 | 67 | 198 | 2.0 | 4.0 | 0.00 | 0.00 | 0.00 | 37 | 1007.0 |
| 20260504233016 | 67 | 292 | 3.0 | 3.0 | 0.00 | 0.00 | 0.00 | 37 | 1007.0 |
| 20260504232516 | 68 | 295 | 3.0 | 3.0 | 0.00 | 0.00 | 0.00 | 36 | 1007.0 |
| 20260504232022 | 68 | 209 | 1.0 | 2.0 | 0.00 | 0.00 | 0.00 | 37 | 1007.0 |
| 20260504231516 | 68 | 259 | 0.0 | 6.0 | 0.00 | 0.00 | 0.00 | 36 | 1007.0 |
| 20260504231016 | 68 | 191 | 3.0 | 3.0 | 0.00 | 0.00 | 0.00 | 35 | 1007.0 |
| 20260504230517 | 69 | 282 | 3.0 | 4.0 | 0.00 | 0.00 | 0.00 | 35 | 1007.0 |
| 20260504230016 | 69 | 208 | 1.0 | 3.0 | 0.00 | 0.00 | 0.00 | 35 | 1007.0 |
| 20260504225518 | 69 | 186 | 0.0 | 5.0 | 0.00 | 0.00 | 0.00 | 34 | 1007.0 |
| 20260504225016 | 69 | 177 | 1.0 | 3.0 | 0.00 | 0.00 | 0.00 | 35 | 1007.0 |
| 20260504224517 | 69 | 137 | 0.0 | 4.0 | 0.00 | 0.00 | 0.00 | 34 | 1007.0 |
| 20260504224017 | 69 | 164 | 2.0 | 9.0 | 0.00 | 0.00 | 0.00 | 34 | 1007.0 |
| 20260504223517 | 70 | 297 | 1.0 | 6.0 | 0.00 | 0.00 | 0.00 | 33 | 1007.0 |
| 20260504223016 | 70 | 32 | 0.0 | 1.0 | 0.00 | 0.00 | 0.00 | 34 | 1007.0 |
| 20260504222517 | 70 | 189 | 2.0 | 7.0 | 0.00 | 0.00 | 0.00 | 33 | 1007.0 |
| 20260504222016 | 70 | 154 | 0.0 | 4.0 | 0.00 | 0.00 | 0.00 | 32 | 1007.0 |
| 20260504221516 | 71 | 189 | 4.0 | 4.0 | 0.00 | 0.00 | 0.00 | 32 | 1007.0 |
| 20260504221017 | 72 | 267 | 3.0 | 7.0 | 0.00 | 0.00 | 0.00 | 31 | 1007.0 |
| 20260504220516 | 72 | 315 | 0.0 | 3.0 | 0.00 | 0.00 | 0.00 | 32 | 1007.0 |
| 20260504220016 | 73 | 234 | 1.0 | 3.0 | 0.00 | 0.00 | 0.00 | 32 | 1007.0 |
| 20260504215516 | 73 | 263 | 2.0 | 4.0 | 0.00 | 0.00 | 0.00 | 30 | 1007.0 |
| 20260504215016 | 74 | 218 | 1.0 | 5.0 | 0.00 | 0.00 | 0.00 | 29 | 1007.0 |
| 20260504214517 | 74 | 315 | 0.0 | 3.0 | 0.00 | 0.00 | 0.00 | 30 | 1007.0 |
| 20260504214017 | 74 | 196 | 1.0 | 5.0 | 0.00 | 0.00 | 0.00 | 29 | 1007.0 |
| 20260504213517 | 74 | 283 | 0.0 | 3.0 | 0.00 | 0.00 | 0.00 | 30 | 1007.0 |
| 20260504213016 | 73 | 252 | 0.0 | 3.0 | 0.00 | 0.00 | 0.00 | 30 | 1007.0 |
| 20260504212517 | 73 | 353 | 0.0 | 5.0 | 0.00 | 0.00 | 0.00 | 30 | 1007.0 |
| 20260504212016 | 73 | 308 | 1.0 | 4.0 | 0.00 | 0.00 | 0.00 | 30 | 1007.0 |
| 20260504211518 | 74 | 150 | 1.0 | 6.0 | 0.00 | 0.00 | 0.00 | 28 | 1007.0 |
| 20260504211017 | 75 | 329 | 0.0 | 3.0 | 0.00 | 0.00 | 0.00 | 28 | 1007.0 |
| 20260504210517 | 75 | 284 | 0.0 | 4.0 | 0.00 | 0.00 | 0.00 | 28 | 1007.0 |
| 20260504210016 | 75 | 232 | 1.0 | 3.0 | 0.00 | 0.00 | 0.00 | 28 | 1007.0 |
| 20260504205517 | 76 | 257 | 2.0 | 3.0 | 0.00 | 0.00 | 0.00 | 29 | 1007.0 |
| 20260504205017 | 75 | 238 | 3.0 | 4.0 | 0.00 | 0.00 | 0.00 | 29 | 1007.0 |
| 20260504204516 | 76 | 217 | 5.0 | 5.0 | 0.00 | 0.00 | 0.00 | 28 | 1007.0 |
| 20260504204017 | 75 | 258 | 0.0 | 3.0 | 0.00 | 0.00 | 0.00 | 28 | 1007.0 |
| 20260504203517 | 75 | 249 | 2.0 | 3.0 | 0.00 | 0.00 | 0.00 | 28 | 1007.0 |
| 20260504203016 | 76 | 258 | 5.0 | 6.0 | 0.00 | 0.00 | 0.00 | 27 | 1007.0 |
| 20260504202516 | 76 | 290 | 2.0 | 4.0 | 0.00 | 0.00 | 0.00 | 28 | 1007.0 |
| 20260504202017 | 76 | 230 | 2.0 | 5.0 | 0.00 | 0.00 | 0.00 | 27 | 1007.0 |
| 20260504201517 | 75 | 295 | 2.0 | 4.0 | 0.00 | 0.00 | 0.00 | 28 | 1007.0 |
| 20260504201016 | 75 | 205 | 3.0 | 6.0 | 0.00 | 0.00 | 0.00 | 27 | 1007.0 |
| 20260504200516 | 75 | 63 | 1.0 | 3.0 | 0.00 | 0.00 | 0.00 | 27 | 1007.0 |
| 20260504200016 | 75 | 260 | 1.0 | 7.0 | 0.00 | 0.00 | 0.00 | 27 | 1008.0 |
| 20260504195517 | 75 | 233 | 3.0 | 9.0 | 0.00 | 0.00 | 0.00 | 26 | 1007.0 |
| 20260504195016 | 76 | 282 | 4.0 | 6.0 | 0.00 | 0.00 | 0.00 | 26 | 1007.0 |
| 20260504194517 | 76 | 328 | 1.0 | 4.0 | 0.00 | 0.00 | 0.00 | 26 | 1007.0 |
| 20260504194016 | 76 | 189 | 5.0 | 5.0 | 0.00 | 0.00 | 0.00 | 26 | 1007.0 |
| 20260504193516 | 75 | 258 | 6.0 | 6.0 | 0.00 | 0.00 | 0.00 | 26 | 1007.0 |
| 20260504193017 | 75 | 302 | 2.0 | 6.0 | 0.00 | 0.00 | 0.00 | 27 | 1007.0 |
| 20260504192516 | 75 | 250 | 1.0 | 5.0 | 0.00 | 0.00 | 0.00 | 28 | 1007.0 |
| 20260504192017 | 75 | 324 | 0.0 | 4.0 | 0.00 | 0.00 | 0.00 | 28 | 1007.0 |
| 20260504191517 | 74 | 190 | 2.0 | 4.0 | 0.00 | 0.00 | 0.00 | 28 | 1007.0 |
| 20260504191017 | 75 | 80 | 2.0 | 3.0 | 0.00 | 0.00 | 0.00 | 27 | 1008.0 |
| 20260504190516 | 74 | 309 | 2.0 | 4.0 | 0.00 | 0.00 | 0.00 | 28 | 1008.0 |
| 20260504190017 | 74 | 230 | 3.0 | 4.0 | 0.00 | 0.00 | 0.00 | 28 | 1008.0 |
| 20260504185516 | 74 | 241 | 3.0 | 6.0 | 0.00 | 0.00 | 0.00 | 28 | 1008.0 |
| 20260504185016 | 74 | 178 | 3.0 | 4.0 | 0.00 | 0.00 | 0.00 | 28 | 1008.0 |
| 20260504184516 | 74 | 241 | 2.0 | 5.0 | 0.00 | 0.00 | 0.00 | 27 | 1008.0 |
| 20260504184016 | 73 | 283 | 3.0 | 6.0 | 0.00 | 0.00 | 0.00 | 28 | 1008.0 |
| 20260504183516 | 73 | 180 | 2.0 | 4.0 | 0.00 | 0.00 | 0.00 | 28 | 1008.0 |
| 20260504183018 | 74 | 264 | 2.0 | 3.0 | 0.00 | 0.00 | 0.00 | 27 | 1008.0 |
| 20260504182516 | 73 | 255 | 2.0 | 5.0 | 0.00 | 0.00 | 0.00 | 28 | 1008.0 |
| 20260504182016 | 72 | 193 | 7.0 | 9.0 | 0.00 | 0.00 | 0.00 | 28 | 1008.0 |
| 20260504181517 | 73 | 199 | 3.0 | 6.0 | 0.00 | 0.00 | 0.00 | 27 | 1009.0 |
| 20260504181017 | 73 | 306 | 2.0 | 5.0 | 0.00 | 0.00 | 0.00 | 28 | 1008.0 |
| 20260504180516 | 73 | 246 | 2.0 | 3.0 | 0.00 | 0.00 | 0.00 | 28 | 1009.0 |
| 20260504180017 | 73 | 279 | 5.0 | 5.0 | 0.00 | 0.00 | 0.00 | 28 | 1009.0 |
| 20260504175518 | 73 | 145 | 1.0 | 5.0 | 0.00 | 0.00 | 0.00 | 29 | 1008.0 |
| 20260504175016 | 73 | 163 | 4.0 | 5.0 | 0.00 | 0.00 | 0.00 | 28 | 1009.0 |
| 20260504174517 | 73 | 329 | 3.0 | 3.0 | 0.00 | 0.00 | 0.00 | 30 | 1009.0 |
| 20260504174017 | 72 | 207 | 1.0 | 4.0 | 0.00 | 0.00 | 0.00 | 29 | 1009.0 |
| 20260504173517 | 72 | 174 | 0.0 | 6.0 | 0.00 | 0.00 | 0.00 | 30 | 1009.0 |
| 20260504173017 | 73 | 230 | 3.0 | 5.0 | 0.00 | 0.00 | 0.00 | 30 | 1009.0 |
| 20260504172516 | 72 | 211 | 3.0 | 3.0 | 0.00 | 0.00 | 0.00 | 30 | 1009.0 |
| 20260504172018 | 72 | 183 | 3.0 | 6.0 | 0.00 | 0.00 | 0.00 | 29 | 1009.0 |
| 20260504171516 | 71 | 223 | 6.0 | 6.0 | 0.00 | 0.00 | 0.00 | 30 | 1009.0 |
| 20260504171016 | 69 | 351 | 1.0 | 5.0 | 0.00 | 0.00 | 0.00 | 33 | 1009.0 |
| 20260504170525 | 69 | 301 | 1.0 | 3.0 | 0.00 | 0.00 | 0.00 | 32 | 1009.0 |